Tracking 29892 objects as of 21-Nov-2024
HD Live streaming from Space Station
objects crossing your sky now

STARLINK-4410

Track STARLINK-4410 now!
10-day predictions
STARLINK-4410 is classified as:


NORAD ID: 53204
Int'l Code: 2022-084R
Perigee: 570.0 km
Apogee: 570.3 km
Inclination: 97.7 °
Period: 95.9 minutes
Semi major axis: 6941 km
RCS: Unknown
Launch date: July 22, 2022
Source: United States (US)
Launch site: AIR FORCE WESTERN TEST RANGE (AFWTR)
Your satellite tracking list
Your tracking list is empty




NASA's NSSDC Master Catalog

Two Line Element Set (TLE):
1 53204U 22084R   24325.13124229  .00001364  00000-0  11077-3 0  9993
2 53204  97.6574  23.7247 0000243 199.8439 160.2776 15.01265400128779
Source of the keplerian elements: AFSPC